Weather Roundup
Issued by NWS Chicago, IL

Home | Current Version | Previous Version | Text Only | Print | Product List | Glossary On
Versions: 1 2 3 4 5 6 7 8 9 10 11 12 13 14 15 16 17 18 19 20 21 22 23 24 25 26 27 28 29 30 31 32 33 34 35 36 37 38 39 40 41 42 43 44 45 46 47 48 49 50
000
NZUS59 KLOT 232107
HRRLOT

CHICAGO AREA WEATHER ROUNDUP
NATIONAL WEATHER SERVICE CHICAGO/ROMEOVILLE IL
400 PM CDT THU MAR 23 2017

NOTE: "FAIR" INDICATES FEW OR NO CLOUDS BELOW 12,000 FEET WITH NO
SIGNIFICANT WEATHER AND/OR OBSTRUCTIONS TO VISIBILITY.

* THESE STATIONS ARE NOT UNDER NWS QUALITY CONTROL. THEY ALSO MAY NOT
  REPORT WEATHER SUCH AS PRECIPITATION OR FOG.

ILZ005-006-012>014-019>023-232200-
NORTHEAST ILLINOIS

CITY           SKY/WX    TMP DP  RH WIND       PRES   REMARKS
OHARE          CLOUDY    48  24  39 S16G24    30.18F
MIDWAY         CLOUDY    48  26  42 S15G23    30.19F
AURORA         CLOUDY    50  25  37 S17G26    30.15F
LANSING*       CLOUDY    47  31  53 SE13G18   30.21F
JOLIET*        CLOUDY    51  26  38 SE9       30.18F
WAUKEGAN       CLOUDY    39  27  62 SE13      30.18F
DUPAGE AIRPORT CLOUDY    48  27  44 S16       30.16F
WHEELING       CLOUDY    47  22  37 S16G24    30.19F
KANKAKEE*      CLOUDY    51  25  35 SE16      30.20F
MORRIS*        CLOUDY    49  24  37 S15G21    30.16F
LEWIS AIRPORT* CLOUDY    48  32  52 S17       30.17F
NORTHERLY ISL    N/A     47  24  41 S8          N/A
$$

WIZ051-052-058>065-066-070>072-232200-
SOUTHEAST WISCONSIN

CITY           SKY/WX    TMP DP  RH WIND       PRES   REMARKS
MILWAUKEE      CLOUDY    41  23  48 S16       30.17F
KENOSHA*       CLOUDY    40  23  50 SE15      30.17F
RACINE*        CLOUDY    39  25  57 SE13G26   30.19F
WAUKESHA       CLOUDY    41  25  52 SE13G20   30.16F
WEST BEND      CLOUDY    37  27  65 SE8       30.16S
$$

INZ001>003-010>013-019-020-232200-
NORTHWEST INDIANA

CITY           SKY/WX    TMP DP  RH WIND       PRES   REMARKS
GARY*          CLOUDY    50  21  32 S16       30.21F
MICHIGAN CITY* NOT AVBL
RENSSELAER*    NOT AVBL
VALPARAISO     CLOUDY    48  25  40 SE13G21   30.21F
$$

LMZ740>746-232200-
SOUTHERN LAKE MICHIGAN

STATION/POSITION TIME  SKY/WX   TEMP WIND        PRES    VSBY
                                AIR  DIR/SP/G
                 (UTC)          (F)  (DEG/KT/KT) (MB)    (MI)
HARRISON CRIB    2040            41  160/ 14/ 17   N/A
BURNHAM HARBOR   2100            46  140/  9/ 16   N/A
CALUMET HARBOR   2048            47  160/ 14/ 19 1022.0F
BURNS HARBOR     2040            46  150/ 10/ 16 1023.4F
MICHIGAN CITY    2040            44  130/ 15/ 19   N/A
$$

ABBREVIATIONS USED IN REMARKS
   TC - TEMPERATURE IN CELSIUS
  WCI - WIND CHILL INDEX
   HX - HEAT INDEX
  VSB - VISIBILITY
$$




USA.gov is the U.S. government's official web portal to all federal, state and local government web resources and services.